sat.trackr.live / text

‹ back to catalog

YAOGAN-17 01C

NORAD 39241 · 2013-046C

PAYLOAD ACTIVE UNKNOWN

§ Identity

Operator
Country
PRC
Launch date
2013-09-01
Launch site
JSC
Launch vehicle
Mass (kg)
RCS (m²)
2.74

External: N2YO · Heavens-Above · Gunter

§ Orbital elements

Epoch: 2026-09-20T05:32:36.726432Z

Period
107.02 min
Inclination
63.3849°
Eccentricity
0.0435589
Mean motion
13.45486429 rev/d
Perigee alt
763.7 km
Apogee alt
1,414.2 km
Semi-major
7,467.0 km
B*
1.4214e-5
RAAN
204.4791°
Arg perigee
11.9508°
Mean anomaly
349.1463°
Rev number
64,116

§ Raw data

YAOGAN-17 01C1 39241U 13046C   26263.23098063 -.00000076  00000+0  14214-4 0  99922 39241  63.3849 204.4791 0435589  11.9508 349.1463 13.45486429641163

JSON: /api/v1/satellites/39241 · /tle

For live sub-satellite position, see the globe view (requires WebGL).

§ Visibility from observer

Set your observer location to see the next 7 days of passes ≥ 10°. The values pass through the URL so the page stays shareable.

No JS? Fill the form by hand. The geolocation button needs JavaScript.